SQP2026 LOWW-EGLL

Flight info

Callsign SQP2026
Flight time 2h 15m
Altitude 30000
Route MEDIX DCT RENKA L610 UPALA Z744 COSJE T892 RIDSU Z114 ADENU L608 DENUT L610 LAM
Aircraft B738/M-SDE3/S

Departure

Time 2026-04-21 13:15
Airport Vienna International Airport (LOWW)

Arrival

Time 2026-04-21 15:30
Airport London Heathrow Airport (EGLL)
Time Latitude Longitude Altitude Speed Heading
2026-04-21 12:46 48.11406 16.57112 619 ft 0 kts 24°
2026-04-21 13:05 48.11396 16.57105 615 ft 2 kts 30°
2026-04-21 13:05 48.11382 16.57092 611 ft 2 kts 40°
2026-04-21 13:05 48.11372 16.57073 621 ft 2 kts 80°
2026-04-21 13:06 48.11373 16.57051 616 ft 0 kts 115°
2026-04-21 13:09 48.11373 16.57052 604 ft 1 kts 115°
2026-04-21 13:10 48.11360 16.57094 607 ft 8 kts 115°
2026-04-21 13:10 48.11331 16.57187 607 ft 11 kts 117°
2026-04-21 13:10 48.11298 16.57283 617 ft 10 kts 116°
2026-04-21 13:10 48.11267 16.57379 615 ft 10 kts 115°
2026-04-21 13:11 48.11245 16.57447 611 ft 12 kts 117°
2026-04-21 13:11 48.11188 16.57595 608 ft 13 kts 147°
2026-04-21 13:11 48.11108 16.57612 603 ft 9 kts 149°
2026-04-21 13:11 48.11089 16.57633 603 ft 4 kts 146°
2026-04-21 13:12 48.11060 16.57645 602 ft 5 kts 177°
2026-04-21 13:12 48.11024 16.57631 602 ft 5 kts 205°
2026-04-21 13:12 48.11023 16.57630 602 ft 0 kts 205°
2026-04-21 13:13 48.11020 16.57628 602 ft 3 kts 207°
2026-04-21 13:13 48.10977 16.57597 603 ft 10 kts 205°
2026-04-21 13:13 48.10924 16.57529 616 ft 10 kts 251°
2026-04-21 13:13 48.10936 16.57462 610 ft 0 kts 296°
2026-04-21 13:14 48.10956 16.57402 614 ft 29 kts 296°
2026-04-21 13:14 48.11155 16.56793 612 ft 99 kts 296°
2026-04-21 13:14 48.11546 16.55570 623 ft 157 kts 296°
2026-04-21 13:15 48.12036 16.54065 1221 ft 167 kts 297°
2026-04-21 13:15 48.12321 16.52312 1911 ft 189 kts 269°
2026-04-21 13:15 48.11687 16.50459 2322 ft 214 kts 221°
2026-04-21 13:15 48.10317 16.49643 2882 ft 218 kts 188°
2026-04-21 13:16 48.08782 16.49379 3312 ft 226 kts 187°
2026-04-21 13:16 48.07209 16.48990 3720 ft 233 kts 191°
2026-04-21 13:16 48.05542 16.48886 3964 ft 251 kts 164°
2026-04-21 13:16 48.03920 16.49982 4265 ft 265 kts 146°
2026-04-21 13:17 48.02335 16.51502 4771 ft 274 kts 144°
2026-04-21 13:17 48.00700 16.53074 5431 ft 279 kts 145°
2026-04-21 13:17 47.99057 16.54613 6155 ft 280 kts 146°
2026-04-21 13:17 47.97417 16.56226 6776 ft 283 kts 135°
2026-04-21 13:18 47.96307 16.58538 7375 ft 277 kts 107°
2026-04-21 13:18 47.96041 16.61338 7987 ft 272 kts 80°
2026-04-21 13:18 47.96508 16.64056 8576 ft 272 kts 68°
2026-04-21 13:18 47.97142 16.66738 9187 ft 275 kts 68°
2026-04-21 13:19 47.97789 16.69447 9859 ft 277 kts 68°
2026-04-21 13:19 47.98426 16.72175 10406 ft 282 kts 68°
2026-04-21 13:19 47.99087 16.75045 10562 ft 302 kts 69°
2026-04-21 13:19 47.99711 16.78137 10737 ft 322 kts 78°
2026-04-21 13:20 47.99980 16.81550 10895 ft 340 kts 83°
2026-04-21 13:20 48.00145 16.85131 11044 ft 357 kts 84°
2026-04-21 13:20 48.00312 16.88885 11436 ft 365 kts 84°
2026-04-21 13:20 48.00505 16.92687 11995 ft 368 kts 84°
2026-04-21 13:21 48.00719 16.96506 12614 ft 370 kts 84°
2026-04-21 13:21 48.00936 17.00346 13175 ft 373 kts 84°
2026-04-21 13:21 48.01104 17.04249 13727 ft 378 kts 90°
2026-04-21 13:21 48.01064 17.08134 14205 ft 380 kts 83°
2026-04-21 13:22 48.01839 17.11880 14634 ft 380 kts 58°
2026-04-21 13:22 48.03592 17.14812 15100 ft 380 kts 33°
2026-04-21 13:22 48.05992 17.16389 15571 ft 379 kts
2026-04-21 13:22 48.08614 17.16404 16026 ft 380 kts 348°
2026-04-21 13:23 48.11123 17.15224 16567 ft 380 kts 334°
2026-04-21 13:23 48.13380 17.13138 16987 ft 384 kts 319°
2026-04-21 13:23 48.15111 17.10117 17558 ft 383 kts 300°
2026-04-21 13:23 48.15999 17.06353 17935 ft 390 kts 277°
2026-04-21 13:24 48.15815 17.02303 18431 ft 394 kts 257°
2026-04-21 13:24 48.14965 16.98388 18904 ft 397 kts 251°
2026-04-21 13:24 48.13951 16.94518 19256 ft 401 kts 250°
2026-04-21 13:24 48.12953 16.90667 19697 ft 402 kts 251°
2026-04-21 13:25 48.12013 16.86720 20183 ft 403 kts 253°
2026-04-21 13:25 48.11187 16.82704 20593 ft 405 kts 256°
2026-04-21 13:25 48.10500 16.78607 20984 ft 406 kts 261°
2026-04-21 13:25 48.10122 16.74423 21384 ft 407 kts 268°
2026-04-21 13:26 48.10101 16.70180 21791 ft 407 kts 274°
2026-04-21 13:26 48.10362 16.65959 22179 ft 408 kts 279°
2026-04-21 13:26 48.10812 16.61769 22556 ft 410 kts 282°
2026-04-21 13:26 48.11382 16.57567 22929 ft 411 kts 283°
2026-04-21 13:27 48.12014 16.53372 23307 ft 413 kts 284°
2026-04-21 13:27 48.12667 16.49235 23670 ft 415 kts 284°
2026-04-21 13:27 48.13341 16.45023 23964 ft 417 kts 284°
2026-04-21 13:27 48.14021 16.40784 24234 ft 418 kts 284°
2026-04-21 13:28 48.14703 16.36522 24527 ft 420 kts 284°
2026-04-21 13:28 48.15381 16.32259 24802 ft 422 kts 284°
2026-04-21 13:28 48.16061 16.27959 25067 ft 424 kts 284°
2026-04-21 13:28 48.16732 16.23701 25329 ft 426 kts 284°
2026-04-21 13:29 48.17413 16.19365 25584 ft 428 kts 284°
2026-04-21 13:29 48.18093 16.15021 25850 ft 430 kts 284°
2026-04-21 13:29 48.18777 16.10641 26120 ft 431 kts 284°
2026-04-21 13:29 48.19460 16.06251 26350 ft 433 kts 284°
2026-04-21 13:30 48.20144 16.01845 26602 ft 435 kts 284°
2026-04-21 13:30 48.20828 15.97429 26850 ft 436 kts 284°
2026-04-21 13:30 48.21513 15.92987 27158 ft 436 kts 284°
2026-04-21 13:30 48.22195 15.88556 27543 ft 434 kts 284°
2026-04-21 13:31 48.22871 15.84154 27911 ft 433 kts 284°
2026-04-21 13:31 48.23535 15.79818 28206 ft 433 kts 284°
2026-04-21 13:31 48.24208 15.75414 28520 ft 432 kts 284°
2026-04-21 13:31 48.24878 15.71014 28856 ft 431 kts 284°
2026-04-21 13:32 48.25546 15.66617 29194 ft 431 kts 284°
2026-04-21 13:32 48.26210 15.62236 29483 ft 431 kts 284°
2026-04-21 13:32 48.26872 15.57845 29761 ft 431 kts 284°
2026-04-21 13:32 48.27531 15.53468 30076 ft 430 kts 284°
2026-04-21 13:33 48.28847 15.44709 30169 ft 435 kts 284°
2026-04-21 13:33 48.30218 15.35764 30156 ft 442 kts 284°
2026-04-21 13:34 48.31677 15.26719 30162 ft 448 kts 285°
2026-04-21 13:34 48.33148 15.17630 30153 ft 451 kts 284°
2026-04-21 13:35 48.34616 15.08453 30160 ft 452 kts 284°
2026-04-21 13:35 48.36073 14.99240 30155 ft 453 kts 284°
2026-04-21 13:36 48.37525 14.90003 30159 ft 453 kts 284°
2026-04-21 13:36 48.38970 14.80766 30165 ft 453 kts 284°
2026-04-21 13:37 48.40404 14.71548 30153 ft 452 kts 284°
2026-04-21 13:37 48.41831 14.62327 30162 ft 451 kts 284°
2026-04-21 13:38 48.43239 14.53180 30165 ft 451 kts 284°
2026-04-21 13:38 48.44647 14.43975 30163 ft 451 kts 284°
2026-04-21 13:39 48.46048 14.34763 30172 ft 450 kts 284°
2026-04-21 13:39 48.47439 14.25563 30166 ft 450 kts 284°
2026-04-21 13:40 48.48821 14.16368 30169 ft 450 kts 284°
2026-04-21 13:40 48.50188 14.07222 30164 ft 450 kts 284°
2026-04-21 13:41 48.51566 13.97946 30162 ft 450 kts 283°
2026-04-21 13:41 48.52919 13.88786 30160 ft 450 kts 283°
2026-04-21 13:42 48.54277 13.79540 30161 ft 450 kts 283°
2026-04-21 13:42 48.55626 13.70291 30156 ft 451 kts 283°
2026-04-21 13:43 48.56962 13.61095 30153 ft 451 kts 283°
2026-04-21 13:43 48.58302 13.51838 30152 ft 451 kts 284°
2026-04-21 13:44 48.60270 13.42872 30148 ft 450 kts 291°
2026-04-21 13:44 48.62436 13.34052 30150 ft 450 kts 291°
2026-04-21 13:45 48.64591 13.25158 30161 ft 450 kts 291°
2026-04-21 13:45 48.66722 13.16237 30152 ft 451 kts 290°
2026-04-21 13:46 48.68844 13.07316 30154 ft 450 kts 291°
2026-04-21 13:46 48.70957 12.98373 30155 ft 450 kts 290°
2026-04-21 13:47 48.73054 12.89434 30152 ft 451 kts 290°
2026-04-21 13:47 48.75139 12.80545 30157 ft 450 kts 290°
2026-04-21 13:48 48.77230 12.71597 30158 ft 451 kts 290°
2026-04-21 13:48 48.79317 12.62623 30160 ft 451 kts 290°
2026-04-21 13:49 48.81389 12.53629 30162 ft 451 kts 290°
2026-04-21 13:49 48.83459 12.44635 30163 ft 451 kts 290°
2026-04-21 13:50 48.85514 12.35685 30163 ft 451 kts 290°
2026-04-21 13:50 48.87577 12.26659 30165 ft 451 kts 290°
2026-04-21 13:51 48.89975 12.17875 30177 ft 450 kts 297°
2026-04-21 13:51 48.92827 12.09385 30168 ft 451 kts 297°
2026-04-21 13:52 48.95685 12.00889 30168 ft 451 kts 297°
2026-04-21 13:52 48.98524 11.92364 30172 ft 451 kts 297°
2026-04-21 13:53 49.01350 11.83812 30172 ft 452 kts 297°
2026-04-21 13:53 49.04165 11.75258 30165 ft 452 kts 297°
2026-04-21 13:54 49.06965 11.66726 30172 ft 452 kts 297°
2026-04-21 13:54 49.09782 11.58114 30173 ft 452 kts 297°
2026-04-21 13:55 49.12587 11.49513 30179 ft 452 kts 297°
2026-04-21 13:55 49.15368 11.40953 30171 ft 452 kts 297°
2026-04-21 13:56 49.18152 11.32326 30171 ft 452 kts 297°
2026-04-21 13:56 49.20941 11.23695 30175 ft 452 kts 297°
2026-04-21 13:57 49.23501 11.14897 30178 ft 453 kts 293°
2026-04-21 13:57 49.25472 11.07474 30178 ft 453 kts 293°
2026-04-21 13:58 49.28271 10.97082 30188 ft 453 kts 293°
2026-04-21 13:58 49.30283 10.89658 30195 ft 454 kts 293°
2026-04-21 13:59 49.32698 10.80720 30198 ft 454 kts 293°
2026-04-21 13:59 49.35590 10.72152 30204 ft 452 kts 306°
2026-04-21 14:00 49.39301 10.64350 30212 ft 453 kts 307°
2026-04-21 14:00 49.43022 10.56541 30214 ft 453 kts 307°
2026-04-21 14:01 49.46702 10.48737 30213 ft 453 kts 306°
2026-04-21 14:01 49.50388 10.40861 30206 ft 454 kts 306°
2026-04-21 14:02 49.54072 10.32959 30199 ft 454 kts 306°
2026-04-21 14:03 49.59588 10.21083 30202 ft 454 kts 306°
2026-04-21 14:03 49.63261 10.13146 30197 ft 454 kts 306°
2026-04-21 14:04 49.66922 10.05217 30201 ft 455 kts 306°
2026-04-21 14:04 49.70326 9.96980 30191 ft 456 kts 294°
2026-04-21 14:05 49.72006 9.87524 30176 ft 460 kts 276°
2026-04-21 14:05 49.72284 9.77651 30189 ft 461 kts 273°
2026-04-21 14:06 49.72483 9.67789 30185 ft 461 kts 274°
2026-04-21 14:06 49.72712 9.57873 30192 ft 461 kts 274°
2026-04-21 14:07 49.72951 9.47954 30193 ft 461 kts 274°
2026-04-21 14:07 49.73184 9.38044 30189 ft 461 kts 274°
2026-04-21 14:08 49.73406 9.28212 30200 ft 461 kts 274°
2026-04-21 14:08 49.73619 9.18337 30183 ft 460 kts 274°
2026-04-21 14:09 49.73825 9.08352 30185 ft 460 kts 274°
2026-04-21 14:09 49.74021 8.98543 30197 ft 459 kts 274°
2026-04-21 14:10 49.74209 8.88671 30193 ft 459 kts 273°
2026-04-21 14:10 49.74388 8.78796 30183 ft 459 kts 273°
2026-04-21 14:11 49.74558 8.68937 30187 ft 459 kts 273°
2026-04-21 14:11 49.74721 8.59067 30187 ft 459 kts 273°
2026-04-21 14:12 49.74917 8.49263 30180 ft 457 kts 277°
2026-04-21 14:12 49.76164 8.39677 30200 ft 455 kts 286°
2026-04-21 14:13 49.77747 8.30187 30209 ft 455 kts 286°
2026-04-21 14:13 49.79291 8.20692 30207 ft 455 kts 285°
2026-04-21 14:14 49.80807 8.11162 30208 ft 456 kts 285°
2026-04-21 14:14 49.82312 8.01689 30205 ft 455 kts 286°
2026-04-21 14:15 49.84035 7.92252 30208 ft 455 kts 288°
2026-04-21 14:15 49.85837 7.82849 30200 ft 455 kts 288°
2026-04-21 14:16 49.87615 7.73430 30208 ft 455 kts 288°
2026-04-21 14:16 49.89365 7.63982 30211 ft 455 kts 287°
2026-04-21 14:17 49.91100 7.54531 30213 ft 455 kts 287°
2026-04-21 14:17 49.92814 7.45139 30208 ft 455 kts 287°
2026-04-21 14:18 49.94534 7.35676 30209 ft 455 kts 287°
2026-04-21 14:18 49.96244 7.26212 30206 ft 454 kts 287°
2026-04-21 14:19 49.97945 7.16753 30210 ft 454 kts 287°
2026-04-21 14:19 49.99626 7.07349 30207 ft 454 kts 287°
2026-04-21 14:20 50.01314 6.97875 30202 ft 454 kts 287°
2026-04-21 14:20 50.03310 6.88585 30179 ft 452 kts 298°
2026-04-21 14:21 50.06358 6.80055 30180 ft 451 kts 301°
2026-04-21 14:21 50.09429 6.71520 30186 ft 451 kts 300°
2026-04-21 14:22 50.12464 6.62968 30179 ft 451 kts 300°
2026-04-21 14:22 50.15492 6.54381 30184 ft 451 kts 300°
2026-04-21 14:23 50.18735 6.46087 30182 ft 450 kts 309°
2026-04-21 14:23 50.23231 6.39311 30208 ft 449 kts 321°
2026-04-21 14:24 50.28073 6.33132 30208 ft 449 kts 321°
2026-04-21 14:24 50.32865 6.26953 30206 ft 449 kts 321°
2026-04-21 14:25 50.37674 6.20698 30216 ft 449 kts 321°
2026-04-21 14:25 50.42488 6.14410 30219 ft 449 kts 321°
2026-04-21 14:26 50.47300 6.08108 30218 ft 450 kts 321°
2026-04-21 14:26 50.52104 6.01797 30231 ft 450 kts 321°
2026-04-21 14:27 50.56886 5.95500 30234 ft 451 kts 321°
2026-04-21 14:27 50.61681 5.89108 30234 ft 452 kts 317°
2026-04-21 14:27 50.63739 5.85358 30246 ft 453 kts 306°
2026-04-21 14:28 50.65374 5.81089 30239 ft 455 kts 298°
2026-04-21 14:28 50.67397 5.71611 30254 ft 458 kts 287°
2026-04-21 14:29 50.69120 5.61925 30224 ft 458 kts 289°
2026-04-21 14:29 50.71072 5.52372 30238 ft 457 kts 290°
2026-04-21 14:30 50.73026 5.42881 30239 ft 457 kts 290°
2026-04-21 14:30 50.74952 5.33309 30241 ft 457 kts 289°
2026-04-21 14:31 50.76853 5.23737 30237 ft 457 kts 289°
2026-04-21 14:31 50.78750 5.14143 30240 ft 456 kts 289°
2026-04-21 14:32 50.80638 5.04572 30245 ft 456 kts 289°
2026-04-21 14:32 50.82478 4.95026 30251 ft 456 kts 289°
2026-04-21 14:33 50.84292 4.85419 30254 ft 455 kts 289°
2026-04-21 14:33 50.86106 4.75832 30258 ft 455 kts 289°
2026-04-21 14:34 50.87914 4.66234 30264 ft 454 kts 288°
2026-04-21 14:34 50.89720 4.56655 30265 ft 453 kts 290°
2026-04-21 14:35 50.92487 4.47754 30276 ft 449 kts 303°
2026-04-21 14:35 50.95781 4.39313 30264 ft 450 kts 303°
2026-04-21 14:36 50.99031 4.30906 30261 ft 450 kts 303°
2026-04-21 14:36 51.02297 4.22372 30263 ft 449 kts 302°
2026-04-21 14:37 51.05507 4.13930 30261 ft 449 kts 302°
2026-04-21 14:37 51.08732 4.05417 30262 ft 449 kts 302°
2026-04-21 14:38 51.11956 3.96883 30260 ft 449 kts 302°
2026-04-21 14:38 51.15169 3.88347 30264 ft 449 kts 302°
2026-04-21 14:39 51.18373 3.79804 30263 ft 449 kts 302°
2026-04-21 14:39 51.21556 3.71299 30267 ft 449 kts 302°
2026-04-21 14:40 51.24132 3.62231 30264 ft 451 kts 287°
2026-04-21 14:40 51.25423 3.52403 30265 ft 452 kts 283°
2026-04-21 14:41 51.26686 3.42629 30275 ft 451 kts 284°
2026-04-21 14:41 51.27972 3.32807 30275 ft 451 kts 284°
2026-04-21 14:42 51.29226 3.23007 30280 ft 450 kts 284°
2026-04-21 14:42 51.30477 3.13211 30287 ft 449 kts 284°
2026-04-21 14:43 51.31708 3.03492 30290 ft 448 kts 284°
2026-04-21 14:43 51.32934 2.93719 30296 ft 447 kts 284°
2026-04-21 14:44 51.33942 2.85625 30295 ft 446 kts 284°
2026-04-21 14:44 51.35149 2.75906 30292 ft 445 kts 284°
2026-04-21 14:45 51.36351 2.66205 30289 ft 443 kts 284°
2026-04-21 14:45 51.37533 2.56545 30286 ft 442 kts 284°
2026-04-21 14:46 51.38714 2.46890 30291 ft 440 kts 284°
2026-04-21 14:46 51.39870 2.37329 30300 ft 439 kts 284°
2026-04-21 14:47 51.41024 2.27739 30310 ft 437 kts 284°
2026-04-21 14:47 51.42170 2.18163 30299 ft 436 kts 284°
2026-04-21 14:48 51.43292 2.08642 30304 ft 434 kts 284°
2026-04-21 14:48 51.44414 1.99165 30307 ft 433 kts 285°
2026-04-21 14:49 51.45593 1.89715 30309 ft 432 kts 285°
2026-04-21 14:49 51.46730 1.80257 30309 ft 431 kts 284°
2026-04-21 14:50 51.47793 1.70860 30313 ft 430 kts 284°
2026-04-21 14:50 51.48879 1.61422 30316 ft 429 kts 284°
2026-04-21 14:51 51.49955 1.52013 30313 ft 427 kts 284°
2026-04-21 14:51 51.50475 1.47361 30056 ft 417 kts 284°
2026-04-21 14:51 51.50980 1.42856 29456 ft 413 kts 284°
2026-04-21 14:51 51.51495 1.38295 28381 ft 420 kts 283°
2026-04-21 14:52 51.52023 1.33605 27238 ft 430 kts 283°
2026-04-21 14:52 51.52552 1.28849 26412 ft 433 kts 282°
2026-04-21 14:52 51.53077 1.24097 25820 ft 430 kts 282°
2026-04-21 14:52 51.53597 1.19388 25283 ft 427 kts 282°
2026-04-21 14:53 51.54113 1.14703 24719 ft 424 kts 282°
2026-04-21 14:53 51.54621 1.10081 24130 ft 424 kts 282°
2026-04-21 14:53 51.55131 1.05417 23457 ft 424 kts 282°
2026-04-21 14:53 51.55638 1.00759 22826 ft 422 kts 282°
2026-04-21 14:54 51.56140 0.96131 22298 ft 418 kts 282°
2026-04-21 14:54 51.56641 0.91531 21686 ft 416 kts 282°
2026-04-21 14:54 51.57131 0.86948 21091 ft 415 kts 282°
2026-04-21 14:54 51.57615 0.82380 20548 ft 413 kts 281°
2026-04-21 14:55 51.58093 0.77891 19970 ft 412 kts 282°
2026-04-21 14:55 51.58585 0.73298 18876 ft 424 kts 281°
2026-04-21 14:55 51.59091 0.68551 17737 ft 436 kts 281°
2026-04-21 14:55 51.59599 0.63716 16938 ft 438 kts 281°
2026-04-21 14:56 51.60105 0.58900 16392 ft 433 kts 281°
2026-04-21 14:56 51.60606 0.54113 15797 ft 431 kts 281°
2026-04-21 14:56 51.61092 0.49425 15192 ft 429 kts 280°
2026-04-21 14:56 51.61575 0.44717 14584 ft 428 kts 280°
2026-04-21 14:57 51.62065 0.39987 14033 ft 425 kts 280°
2026-04-21 14:57 51.62546 0.35343 13495 ft 422 kts 280°
2026-04-21 14:57 51.63026 0.30696 13018 ft 413 kts 280°
2026-04-21 14:57 51.63488 0.26184 12446 ft 405 kts 280°
2026-04-21 14:58 51.63933 0.21814 12319 ft 385 kts 280°
2026-04-21 14:58 51.64263 0.17615 12123 ft 370 kts 270°
2026-04-21 14:58 51.64006 0.14671 11956 ft 360 kts 251°
2026-04-21 14:58 51.63029 0.11331 11846 ft 344 kts 237°
2026-04-21 14:59 51.61725 0.08200 11747 ft 329 kts 233°
2026-04-21 14:59 51.60412 0.05258 11622 ft 317 kts 232°
2026-04-21 14:59 51.59138 0.02427 11510 ft 306 kts 232°
2026-04-21 14:59 51.57917 -0.00315 11308 ft 297 kts 233°
2026-04-21 15:00 51.56757 -0.02954 10968 ft 289 kts 233°
2026-04-21 15:00 51.55603 -0.05592 10416 ft 288 kts 233°
2026-04-21 15:00 51.54457 -0.08214 9798 ft 287 kts 233°
2026-04-21 15:00 51.53304 -0.10847 9154 ft 288 kts 233°
2026-04-21 15:01 51.52155 -0.13475 8507 ft 288 kts 233°
2026-04-21 15:01 51.51006 -0.16101 7965 ft 285 kts 233°
2026-04-21 15:01 51.49871 -0.18693 7429 ft 282 kts 233°
2026-04-21 15:01 51.48742 -0.21274 6844 ft 282 kts 233°
2026-04-21 15:02 51.47622 -0.23830 6304 ft 278 kts 235°
2026-04-21 15:02 51.46973 -0.26723 5703 ft 279 kts 267°
2026-04-21 15:02 51.47282 -0.29752 5130 ft 274 kts 297°
2026-04-21 15:02 51.48386 -0.32158 4575 ft 264 kts 326°
2026-04-21 15:03 51.49846 -0.33812 4118 ft 262 kts 324°
2026-04-21 15:03 51.50870 -0.36239 3750 ft 268 kts 290°
2026-04-21 15:03 51.51008 -0.39205 3403 ft 268 kts 258°
2026-04-21 15:03 51.50347 -0.41868 3484 ft 255 kts 238°
2026-04-21 15:04 51.49370 -0.44310 3638 ft 267 kts 234°
2026-04-21 15:04 51.48308 -0.46799 4340 ft 271 kts 233°
2026-04-21 15:04 51.47237 -0.49296 5218 ft 272 kts 233°
2026-04-21 15:04 51.46162 -0.51815 5931 ft 275 kts 233°
2026-04-21 15:05 51.45095 -0.54329 6266 ft 277 kts 234°
2026-04-21 15:05 51.42926 -0.59470 6298 ft 279 kts 234°
2026-04-21 15:05 51.41837 -0.62049 6290 ft 279 kts 234°
2026-04-21 15:06 51.40754 -0.64614 6296 ft 277 kts 234°
2026-04-21 15:06 51.39672 -0.67177 6274 ft 277 kts 234°
2026-04-21 15:06 51.38588 -0.69740 6267 ft 277 kts 234°
2026-04-21 15:06 51.37509 -0.72290 6274 ft 277 kts 234°
2026-04-21 15:07 51.36514 -0.74932 6257 ft 280 kts 249°
2026-04-21 15:07 51.36310 -0.77938 6157 ft 273 kts 282°
2026-04-21 15:07 51.37039 -0.80616 6014 ft 253 kts 314°
2026-04-21 15:07 51.38321 -0.82282 5883 ft 226 kts 341°
2026-04-21 15:08 51.39774 -0.82914 5562 ft 211 kts
2026-04-21 15:08 51.41193 -0.82703 5203 ft 199 kts 20°
2026-04-21 15:08 51.42450 -0.82042 4967 ft 185 kts 34°
2026-04-21 15:08 51.43456 -0.80847 4539 ft 180 kts 50°
2026-04-21 15:09 51.44486 -0.79671 4155 ft 180 kts 31°
2026-04-21 15:09 51.45582 -0.78954 3939 ft 162 kts 32°
2026-04-21 15:09 51.46455 -0.77959 3504 ft 149 kts 56°
2026-04-21 15:09 51.47010 -0.76640 3371 ft 142 kts 62°
2026-04-21 15:10 51.47541 -0.75323 3314 ft 143 kts 62°
2026-04-21 15:10 51.47715 -0.73808 3313 ft 138 kts 91°
2026-04-21 15:10 51.47694 -0.72243 3228 ft 143 kts 88°
2026-04-21 15:10 51.47694 -0.70661 3040 ft 140 kts 88°
2026-04-21 15:11 51.47696 -0.69098 2868 ft 138 kts 88°
2026-04-21 15:11 51.47699 -0.67571 2691 ft 137 kts 88°
2026-04-21 15:11 51.47702 -0.66040 2511 ft 136 kts 88°
2026-04-21 15:11 51.47705 -0.64502 2323 ft 138 kts 87°
2026-04-21 15:12 51.47708 -0.62993 2152 ft 135 kts 88°
2026-04-21 15:12 51.47712 -0.61491 1973 ft 134 kts 88°
2026-04-21 15:12 51.47716 -0.59979 1803 ft 137 kts 88°
2026-04-21 15:12 51.47721 -0.58453 1622 ft 136 kts 87°
2026-04-21 15:13 51.47725 -0.56930 1465 ft 137 kts 87°
2026-04-21 15:13 51.47729 -0.55381 1263 ft 138 kts 88°
2026-04-21 15:13 51.47733 -0.53852 1108 ft 136 kts 88°
2026-04-21 15:13 51.47738 -0.52319 884 ft 136 kts 88°
2026-04-21 15:14 51.47734 -0.50841 601 ft 136 kts 89°
2026-04-21 15:14 51.47722 -0.49330 323 ft 133 kts 91°
2026-04-21 15:14 51.47701 -0.47958 431 ft 130 kts 88°
2026-04-21 15:14 51.47743 -0.46360 441 ft 144 kts 80°
2026-04-21 15:15 51.48066 -0.44834 820 ft 156 kts 64°
2026-04-21 15:15 51.48782 -0.43451 1677 ft 168 kts 44°
2026-04-21 15:15 51.49790 -0.42274 2364 ft 188 kts 40°
2026-04-21 15:15 51.50946 -0.41242 3154 ft 200 kts 20°
2026-04-21 15:16 51.52398 -0.41168 3701 ft 215 kts 359°
2026-04-21 15:16 51.53811 -0.41539 4090 ft 199 kts 359°
2026-04-21 15:16 51.55208 -0.41681 3632 ft 206 kts
2026-04-21 15:16 51.56571 -0.42347 3479 ft 204 kts 333°
2026-04-21 15:17 51.57549 -0.43935 3232 ft 203 kts 301°
2026-04-21 15:17 51.57824 -0.46124 3127 ft 208 kts 264°
2026-04-21 15:17 51.57360 -0.48401 2627 ft 223 kts 231°
2026-04-21 15:17 51.56169 -0.49633 2652 ft 190 kts 181°
2026-04-21 15:18 51.54899 -0.49368 2854 ft 193 kts 163°
2026-04-21 15:18 51.53518 -0.49597 2876 ft 210 kts 200°
2026-04-21 15:18 51.52385 -0.51118 2923 ft 218 kts 230°
2026-04-21 15:18 51.51530 -0.53166 3282 ft 224 kts 242°
2026-04-21 15:19 51.50828 -0.55432 3261 ft 225 kts 243°
2026-04-21 15:19 51.50171 -0.57634 3276 ft 218 kts 244°
2026-04-21 15:19 51.49513 -0.59867 3304 ft 219 kts 244°
2026-04-21 15:19 51.48870 -0.62058 3298 ft 220 kts 244°
2026-04-21 15:20 51.48225 -0.64280 3293 ft 221 kts 244°
2026-04-21 15:20 51.47546 -0.66597 3324 ft 235 kts 244°
2026-04-21 15:20 51.46846 -0.68976 3290 ft 233 kts 244°
2026-04-21 15:20 51.46158 -0.71324 3286 ft 231 kts 244°
2026-04-21 15:21 51.45481 -0.73636 3288 ft 229 kts 244°
2026-04-21 15:21 51.44800 -0.75959 3265 ft 231 kts 244°
2026-04-21 15:21 51.44113 -0.78299 3273 ft 232 kts 244°
2026-04-21 15:21 51.43420 -0.80650 3263 ft 232 kts 244°
2026-04-21 15:22 51.42752 -0.82987 3281 ft 232 kts 249°
2026-04-21 15:22 51.42667 -0.85512 3261 ft 226 kts 293°
2026-04-21 15:22 51.43539 -0.87414 3270 ft 212 kts 335°
2026-04-21 15:22 51.44914 -0.87923 3297 ft 198 kts 10°
2026-04-21 15:23 51.46271 -0.87697 3280 ft 196 kts 18°
2026-04-21 15:23 51.47315 -0.86616 3272 ft 169 kts 63°
2026-04-21 15:23 51.47691 -0.84973 3282 ft 150 kts 70°
2026-04-21 15:23 51.47915 -0.83347 3305 ft 154 kts 92°
2026-04-21 15:24 51.47772 -0.81663 3261 ft 147 kts 95°
2026-04-21 15:24 51.47700 -0.80071 3269 ft 141 kts 90°
2026-04-21 15:24 51.47684 -0.78509 3271 ft 139 kts 89°
2026-04-21 15:24 51.47663 -0.76944 3303 ft 143 kts 91°
2026-04-21 15:25 51.47671 -0.75373 3287 ft 138 kts 88°
2026-04-21 15:25 51.47683 -0.73860 3290 ft 137 kts 88°
2026-04-21 15:25 51.47688 -0.72295 3234 ft 146 kts 89°
2026-04-21 15:25 51.47691 -0.70667 3025 ft 144 kts 88°
2026-04-21 15:26 51.47694 -0.69042 2853 ft 144 kts 88°
2026-04-21 15:26 51.47696 -0.67464 2670 ft 139 kts 89°
2026-04-21 15:26 51.47699 -0.65949 2519 ft 137 kts 88°
2026-04-21 15:26 51.47703 -0.64413 2317 ft 137 kts 89°
2026-04-21 15:27 51.47706 -0.62900 2128 ft 134 kts 88°
2026-04-21 15:27 51.47712 -0.61395 1967 ft 139 kts 88°
2026-04-21 15:27 51.47715 -0.60348 1840 ft 139 kts 88°
2026-04-21 15:27 51.47719 -0.58804 1669 ft 139 kts 87°
2026-04-21 15:28 51.47723 -0.57238 1479 ft 140 kts 86°
2026-04-21 15:28 51.47728 -0.55675 1275 ft 139 kts 88°
2026-04-21 15:28 51.47732 -0.54119 1125 ft 140 kts 87°
2026-04-21 15:28 51.47738 -0.52543 888 ft 146 kts 88°
2026-04-21 15:29 51.47737 -0.50919 542 ft 145 kts 88°
2026-04-21 15:29 51.47747 -0.49375 238 ft 136 kts 88°
2026-04-21 15:29 51.47750 -0.47954 105 ft 118 kts 88°
2026-04-21 15:29 51.47758 -0.46797 86 ft 79 kts 90°
2026-04-21 15:30 51.47758 -0.46287 85 ft 22 kts 99°
2026-04-21 15:30 51.47676 -0.46114 83 ft 14 kts 148°
2026-04-21 15:30 51.47663 -0.46100 84 ft 1 kts 147°
2026-04-21 15:30 51.47659 -0.46097 84 ft 0 kts 147°
2026-04-21 15:31 51.47655 -0.46092 85 ft 3 kts 147°
2026-04-21 15:31 51.47618 -0.46053 84 ft 10 kts 143°
2026-04-21 15:31 51.47595 -0.45958 85 ft 6 kts 95°
2026-04-21 15:32 51.47595 -0.45897 83 ft 5 kts 90°
2026-04-21 15:32 51.47595 -0.45839 84 ft 5 kts 89°
2026-04-21 15:32 51.47595 -0.45783 83 ft 5 kts 89°
2026-04-21 15:32 51.47596 -0.45717 83 ft 7 kts 89°
2026-04-21 15:33 51.47596 -0.45608 81 ft 12 kts 89°
2026-04-21 15:33 51.47597 -0.45449 81 ft 16 kts 89°
2026-04-21 15:33 51.47597 -0.45249 81 ft 20 kts 91°
2026-04-21 15:33 51.47597 -0.45021 81 ft 20 kts 89°
2026-04-21 15:34 51.47599 -0.44800 82 ft 20 kts 89°
2026-04-21 15:34 51.47602 -0.44582 81 ft 19 kts 89°
2026-04-21 15:34 51.47602 -0.44372 81 ft 18 kts 92°
2026-04-21 15:34 51.47594 -0.44175 83 ft 15 kts 89°
2026-04-21 15:35 51.47549 -0.44063 82 ft 12 kts 175°
2026-04-21 15:35 51.47468 -0.44064 81 ft 12 kts 180°
2026-04-21 15:35 51.47388 -0.44064 81 ft 11 kts 180°
2026-04-21 15:35 51.47305 -0.44063 81 ft 13 kts 181°
2026-04-21 15:36 51.47216 -0.44062 81 ft 13 kts 179°
2026-04-21 15:36 51.47118 -0.44061 82 ft 15 kts 180°
2026-04-21 15:36 51.47040 -0.44081 81 ft 7 kts 238°
2026-04-21 15:36 51.47039 -0.44160 81 ft 7 kts 265°
2026-04-21 15:37 51.47036 -0.44231 81 ft 3 kts 265°